| time (UTC) | temp F | wind direction | speed knots | gust knots | rain 1hr in | rain 24hr in | rain mn in | humidity % | barometer mb |
| 20260507133043 | 65 | 56 | 11.3 | 16.5 | 0.00 | 0.00 | 0.00 | 65 | 1014.0 |
| 20260507132542 | 66 | 134 | 2.6 | 11.3 | 0.00 | 0.00 | 0.00 | 64 | 1014.0 |
| 20260507132043 | 65 | 72 | 4.3 | 11.3 | 0.00 | 0.00 | 0.00 | 66 | 1014.0 |
| 20260507131543 | 65 | 36 | 5.2 | 10.4 | 0.00 | 0.00 | 0.00 | 66 | 1014.0 |
| 20260507131042 | 65 | 83 | 4.3 | 11.3 | 0.00 | 0.00 | 0.00 | 66 | 1014.0 |
| 20260507130545 | 66 | 55 | 8.7 | 13.0 | 0.00 | 0.00 | 0.00 | 64 | 1014.0 |
| 20260507130043 | 65 | 358 | 4.3 | 7.8 | 0.00 | 0.00 | 0.00 | 65 | 1014.0 |
| 20260507125548 | 66 | 353 | 4.3 | 7.0 | 0.00 | 0.00 | 0.00 | 64 | 1014.0 |
| 20260507125042 | 66 | 334 | 2.6 | 7.8 | 0.00 | 0.00 | 0.00 | 65 | 1015.0 |
| 20260507124543 | 64 | 93 | 5.2 | 5.2 | 0.00 | 0.00 | 0.00 | 67 | 1014.0 |
| 20260507124043 | 65 | 59 | 6.1 | 13.0 | 0.00 | 0.00 | 0.00 | 67 | 1015.0 |
| 20260507123543 | 66 | 74 | 8.7 | 13.0 | 0.00 | 0.00 | 0.00 | 63 | 1015.0 |
| 20260507123043 | 65 | 85 | 7.0 | 9.6 | 0.00 | 0.00 | 0.00 | 66 | 1014.0 |
| 20260507122543 | 65 | 62 | 2.6 | 14.8 | 0.00 | 0.00 | 0.00 | 66 | 1015.0 |
| 20260507122043 | 66 | 55 | 11.3 | 13.0 | 0.00 | 0.00 | 0.00 | 65 | 1015.0 |
| 20260507121543 | 64 | 101 | 3.5 | 13.9 | 0.00 | 0.00 | 0.00 | 67 | 1015.0 |
| 20260507121043 | 65 | 66 | 7.8 | 14.8 | 0.00 | 0.00 | 0.00 | 66 | 1015.0 |
| 20260507120543 | 64 | 83 | 4.3 | 12.2 | 0.00 | 0.00 | 0.00 | 67 | 1015.0 |
| 20260507120042 | 65 | 67 | 9.6 | 13.9 | 0.00 | 0.00 | 0.00 | 64 | 1015.0 |
| 20260507115543 | 66 | 90 | 7.8 | 8.7 | 0.00 | 0.00 | 0.00 | 65 | 1015.0 |
| 20260507115042 | 65 | 98 | 4.3 | 7.8 | 0.00 | 0.00 | 0.00 | 65 | 1015.0 |
| 20260507114543 | 65 | 104 | 4.3 | 9.6 | 0.00 | 0.00 | 0.00 | 66 | 1015.0 |
| 20260507114042 | 66 | 55 | 11.3 | 16.5 | 0.00 | 0.00 | 0.00 | 64 | 1015.0 |
| 20260507113542 | 66 | 76 | 8.7 | 13.0 | 0.00 | 0.00 | 0.00 | 64 | 1015.0 |
| 20260507113042 | 67 | 59 | 2.6 | 7.8 | 0.00 | 0.00 | 0.00 | 63 | 1015.0 |
| 20260507112542 | 65 | 20 | 2.6 | 9.6 | 0.00 | 0.00 | 0.00 | 66 | 1015.0 |
| 20260507112045 | 65 | 176 | 2.6 | 7.8 | 0.00 | 0.00 | 0.00 | 65 | 1015.0 |
| 20260507111542 | 66 | 133 | 10.4 | 13.0 | 0.00 | 0.00 | 0.00 | 64 | 1015.0 |
| 20260507111043 | 66 | 12 | 7.8 | 8.7 | 0.00 | 0.00 | 0.00 | 64 | 1015.0 |
| 20260507110543 | 64 | 21 | 6.1 | 9.6 | 0.00 | 0.00 | 0.00 | 67 | 1015.0 |
| 20260507110044 | 64 | 59 | 11.3 | 13.0 | 0.00 | 0.00 | 0.00 | 67 | 1015.0 |
| 20260507105542 | 64 | 65 | 9.6 | 9.6 | 0.00 | 0.00 | 0.00 | 67 | 1015.0 |
| 20260507105042 | 65 | 77 | 4.3 | 11.3 | 0.00 | 0.00 | 0.00 | 67 | 1015.0 |
| 20260507104543 | 65 | 352 | 4.3 | 7.8 | 0.00 | 0.00 | 0.00 | 67 | 1015.0 |
| 20260507104043 | 64 | 67 | 8.7 | 11.3 | 0.00 | 0.00 | 0.00 | 68 | 1015.0 |
| 20260507103543 | 65 | 71 | 10.4 | 13.0 | 0.00 | 0.00 | 0.00 | 66 | 1015.0 |
| 20260507103042 | 65 | 340 | 2.6 | 8.7 | 0.00 | 0.00 | 0.00 | 67 | 1015.0 |
| 20260507102542 | 65 | 54 | 11.3 | 13.9 | 0.00 | 0.00 | 0.00 | 67 | 1015.0 |
| 20260507102043 | 65 | 62 | 1.7 | 8.7 | 0.00 | 0.00 | 0.00 | 67 | 1015.0 |
| 20260507101055 | 65 | 56 | 4.3 | 9.6 | 0.00 | 0.00 | 0.00 | 66 | 1015.0 |
| 20260507100542 | 65 | 64 | 10.4 | 11.3 | 0.00 | 0.00 | 0.00 | 64 | 1015.0 |
| 20260507100042 | 65 | 1 | 4.3 | 9.6 | 0.00 | 0.00 | 0.00 | 67 | 1015.0 |
| 20260507095542 | 66 | 78 | 1.7 | 5.2 | 0.00 | 0.00 | 0.00 | 65 | 1015.0 |
| 20260507095044 | 65 | 135 | 2.6 | 9.6 | 0.00 | 0.00 | 0.00 | 67 | 1015.0 |
| 20260507094542 | 64 | 54 | 12.2 | 13.0 | 0.00 | 0.00 | 0.00 | 68 | 1015.0 |
| 20260507094042 | 64 | 52 | 9.6 | 12.2 | 0.00 | 0.00 | 0.00 | 68 | 1015.0 |
| 20260507093542 | 65 | 11 | 1.7 | 6.1 | 0.00 | 0.00 | 0.00 | 67 | 1015.0 |
| 20260507092542 | 65 | 49 | 9.6 | 10.4 | 0.00 | 0.00 | 0.00 | 65 | 1015.0 |
| 20260507092042 | 64 | 47 | 2.6 | 6.1 | 0.00 | 0.00 | 0.00 | 68 | 1015.0 |
| 20260507091542 | 63 | 62 | 8.7 | 9.6 | 0.00 | 0.00 | 0.00 | 69 | 1015.0 |
| 20260507091042 | 63 | 17 | 4.3 | 9.6 | 0.00 | 0.00 | 0.00 | 70 | 1015.0 |
| 20260507090542 | 63 | 25 | 4.3 | 7.8 | 0.00 | 0.00 | 0.00 | 70 | 1015.0 |
| 20260507090043 | 64 | 77 | 7.0 | 9.6 | 0.00 | 0.00 | 0.00 | 68 | 1015.0 |
| 20260507085544 | 64 | 58 | 2.6 | 5.2 | 0.00 | 0.00 | 0.00 | 68 | 1015.0 |
| 20260507085043 | 64 | 330 | 3.5 | 8.7 | 0.00 | 0.00 | 0.00 | 68 | 1015.0 |
| 20260507084542 | 64 | 353 | 0.9 | 6.1 | 0.00 | 0.00 | 0.00 | 69 | 1015.0 |
| 20260507084043 | 63 | 31 | 2.6 | 4.3 | 0.00 | 0.00 | 0.00 | 71 | 1015.0 |
| 20260507083542 | 63 | 19 | 1.7 | 6.1 | 0.00 | 0.00 | 0.00 | 71 | 1015.0 |
| 20260507083043 | 63 | 239 | 1.7 | 7.0 | 0.00 | 0.00 | 0.00 | 70 | 1015.0 |
| 20260507082543 | 64 | 283 | 5.2 | 6.1 | 0.00 | 0.00 | 0.00 | 70 | 1015.0 |
| 20260507082042 | 64 | 313 | 1.7 | 4.3 | 0.00 | 0.00 | 0.00 | 69 | 1015.0 |
| 20260507081543 | 63 | 26 | 1.7 | 7.0 | 0.00 | 0.00 | 0.00 | 72 | 1015.0 |
| 20260507081045 | 63 | 21 | 5.2 | 7.0 | 0.00 | 0.00 | 0.00 | 71 | 1015.0 |
| 20260507080542 | 62 | 3 | 3.5 | 5.2 | 0.00 | 0.00 | 0.00 | 73 | 1015.0 |
| 20260507080042 | 62 | 40 | 3.5 | 7.0 | 0.00 | 0.00 | 0.00 | 73 | 1015.0 |
| 20260507075542 | 62 | 18 | 5.2 | 8.7 | 0.00 | 0.00 | 0.00 | 74 | 1015.0 |
| 20260507075042 | 62 | 6 | 3.5 | 7.0 | 0.00 | 0.00 | 0.00 | 74 | 1015.0 |
| 20260507074542 | 62 | 359 | 7.0 | 9.6 | 0.00 | 0.00 | 0.00 | 74 | 1015.0 |
| 20260507074042 | 62 | 294 | 3.5 | 7.0 | 0.00 | 0.00 | 0.00 | 74 | 1016.0 |
| 20260507073542 | 62 | 273 | 2.6 | 7.0 | 0.00 | 0.00 | 0.00 | 74 | 1015.0 |
| 20260507073043 | 61 | 307 | 4.3 | 9.6 | 0.00 | 0.00 | 0.00 | 75 | 1015.0 |
| 20260507072542 | 60 | 288 | 1.7 | 4.3 | 0.00 | 0.00 | 0.00 | 76 | 1016.0 |
| 20260507072043 | 60 | 293 | 4.3 | 5.2 | 0.00 | 0.00 | 0.00 | 75 | 1015.0 |
| 20260507071543 | 60 | 352 | 6.1 | 6.1 | 0.00 | 0.00 | 0.00 | 75 | 1015.0 |
| 20260507071042 | 60 | 339 | 4.3 | 5.2 | 0.00 | 0.00 | 0.00 | 73 | 1015.0 |
| 20260507070544 | 61 | 41 | 3.5 | 6.1 | 0.00 | 0.00 | 0.00 | 71 | 1015.0 |
| 20260507070042 | 61 | 32 | 3.5 | 5.2 | 0.00 | 0.00 | 0.00 | 70 | 1015.0 |
| 20260507065543 | 61 | 301 | 0.9 | 4.3 | 0.00 | 0.00 | 0.00 | 70 | 1015.0 |
| 20260507065043 | 61 | 293 | 1.7 | 4.3 | 0.00 | 0.00 | 0.00 | 70 | 1015.0 |
| 20260507064543 | 60 | 352 | 1.7 | 3.5 | 0.00 | 0.00 | 0.00 | 70 | 1015.0 |
| 20260507064042 | 60 | 350 | 3.5 | 5.2 | 0.00 | 0.00 | 0.00 | 69 | 1015.0 |
| 20260507063543 | 60 | 21 | 1.7 | 4.3 | 0.00 | 0.00 | 0.00 | 69 | 1015.0 |
| 20260507063042 | 60 | 13 | 0.9 | 2.6 | 0.00 | 0.00 | 0.00 | 67 | 1015.0 |
| 20260507062542 | 61 | 23 | 2.6 | 4.3 | 0.00 | 0.00 | 0.00 | 66 | 1015.0 |
| 20260507062043 | 62 | 2 | 2.6 | 4.3 | 0.00 | 0.00 | 0.00 | 64 | 1015.0 |
| 20260507061542 | 62 | 344 | 1.7 | 3.5 | 0.00 | 0.00 | 0.00 | 65 | 1015.0 |
| 20260507061043 | 63 | 92 | 0.9 | 1.7 | 0.00 | 0.00 | 0.00 | 64 | 1015.0 |
| 20260507060042 | 61 | 356 | 1.7 | 2.6 | 0.00 | 0.00 | 0.00 | 69 | 1015.0 |
| 20260507055543 | 61 | 28 | 0.0 | 1.7 | 0.00 | 0.00 | 0.00 | 68 | 1014.0 |
| 20260507055042 | 60 | 33 | 0.0 | 1.7 | 0.00 | 0.00 | 0.00 | 70 | 1014.0 |
| 20260507054542 | 59 | 308 | 1.7 | 2.6 | 0.00 | 0.00 | 0.00 | 71 | 1014.0 |
| 20260507054043 | 59 | 33 | 0.0 | 1.7 | 0.00 | 0.00 | 0.00 | 73 | 1014.0 |
| 20260507053543 | 58 | 46 | 0.0 | 0.9 | 0.00 | 0.00 | 0.00 | 74 | 1014.0 |
| 20260507053042 | 57 | 6 | 1.7 | 2.6 | 0.00 | 0.00 | 0.00 | 75 | 1014.0 |
| 20260507052542 | 57 | 38 | 1.7 | 1.7 | 0.00 | 0.00 | 0.00 | 75 | 1014.0 |
| 20260507052043 | 57 | 2 | 0.9 | 1.7 | 0.00 | 0.00 | 0.00 | 75 | 1014.0 |
| 20260507051542 | 57 | 9 | 0.9 | 2.6 | 0.00 | 0.00 | 0.00 | 76 | 1014.0 |
| 20260507051042 | 57 | 10 | 0.9 | 2.6 | 0.00 | 0.00 | 0.00 | 76 | 1014.0 |
| 20260507050542 | 57 | 323 | 0.0 | 1.7 | 0.00 | 0.00 | 0.00 | 76 | 1014.0 |
| 20260507050042 | 57 | 44 | 1.7 | 1.7 | 0.00 | 0.00 | 0.00 | 76 | 1014.0 |
| 20260507045542 | 57 | 3 | 1.7 | 1.7 | 0.00 | 0.00 | 0.00 | 76 | 1014.0 |
| 20260507045042 | 57 | 22 | 0.9 | 2.6 | 0.00 | 0.00 | 0.00 | 76 | 1014.0 |
| 20260507044543 | 57 | 337 | 2.6 | 2.6 | 0.00 | 0.00 | 0.00 | 76 | 1014.0 |
| 20260507044042 | 57 | 344 | 0.0 | 2.6 | 0.00 | 0.00 | 0.00 | 76 | 1014.0 |
| 20260507043543 | 57 | 27 | 2.6 | 2.6 | 0.00 | 0.00 | 0.00 | 76 | 1014.0 |
| 20260507043042 | 57 | 337 | 0.0 | 2.6 | 0.00 | 0.00 | 0.00 | 76 | 1014.0 |
| 20260507042543 | 57 | 330 | 1.7 | 2.6 | 0.00 | 0.00 | 0.00 | 76 | 1014.0 |
| 20260507042043 | 57 | 350 | 3.5 | 3.5 | 0.00 | 0.00 | 0.00 | 76 | 1014.0 |
| 20260507041543 | 57 | 359 | 0.0 | 2.6 | 0.00 | 0.00 | 0.00 | 76 | 1014.0 |
| 20260507041042 | 57 | 326 | 2.6 | 3.5 | 0.00 | 0.00 | 0.00 | 77 | 1014.0 |
| 20260507040542 | 57 | 330 | 3.5 | 4.3 | 0.00 | 0.00 | 0.00 | 77 | 1014.0 |
| 20260507040042 | 57 | 320 | 1.7 | 3.5 | 0.00 | 0.00 | 0.00 | 77 | 1014.0 |
| 20260507035542 | 57 | 4 | 1.7 | 4.3 | 0.00 | 0.00 | 0.00 | 77 | 1014.0 |
| 20260507035043 | 57 | 352 | 2.6 | 3.5 | 0.00 | 0.00 | 0.00 | 77 | 1014.0 |
| 20260507034543 | 57 | 15 | 1.7 | 2.6 | 0.00 | 0.00 | 0.00 | 78 | 1014.0 |
| 20260507034042 | 57 | 4 | 1.7 | 3.5 | 0.00 | 0.00 | 0.00 | 78 | 1014.0 |
| 20260507033542 | 57 | 317 | 0.9 | 2.6 | 0.00 | 0.00 | 0.00 | 78 | 1014.0 |
| 20260507033043 | 57 | 299 | 1.7 | 2.6 | 0.00 | 0.00 | 0.00 | 78 | 1014.0 |
| 20260507032542 | 57 | 352 | 1.7 | 2.6 | 0.00 | 0.00 | 0.00 | 78 | 1014.0 |
| 20260507032042 | 57 | 332 | 2.6 | 4.3 | 0.00 | 0.00 | 0.00 | 78 | 1014.0 |
| 20260507031543 | 57 | 345 | 1.7 | 2.6 | 0.00 | 0.00 | 0.00 | 78 | 1014.0 |
| 20260507031043 | 58 | 336 | 3.5 | 4.3 | 0.00 | 0.00 | 0.00 | 78 | 1014.0 |
| 20260507030543 | 58 | 355 | 1.7 | 1.7 | 0.00 | 0.00 | 0.00 | 78 | 1014.0 |
| 20260507030042 | 58 | 337 | 1.7 | 2.6 | 0.00 | 0.00 | 0.00 | 78 | 1014.0 |
| 20260507025543 | 58 | 312 | 1.7 | 3.5 | 0.00 | 0.00 | 0.00 | 78 | 1014.0 |
| 20260507025047 | 58 | 332 | 2.6 | 2.6 | 0.00 | 0.00 | 0.00 | 79 | 1014.0 |
| 20260507024543 | 58 | 37 | 0.9 | 2.6 | 0.00 | 0.00 | 0.00 | 78 | 1014.0 |
| 20260507024043 | 58 | 0 | 0.9 | 2.6 | 0.00 | 0.00 | 0.00 | 78 | 1014.0 |
| 20260507023543 | 58 | 339 | 1.7 | 2.6 | 0.00 | 0.00 | 0.00 | 78 | 1014.0 |
| 20260507023043 | 58 | 318 | 2.6 | 3.5 | 0.00 | 0.00 | 0.00 | 78 | 1014.0 |
| 20260507022542 | 58 | 327 | 2.6 | 3.5 | 0.00 | 0.00 | 0.00 | 78 | 1014.0 |
| 20260507022042 | 58 | 315 | 0.0 | 3.5 | 0.00 | 0.00 | 0.00 | 78 | 1014.0 |
| 20260507021542 | 58 | 33 | 0.0 | 1.7 | 0.00 | 0.00 | 0.00 | 78 | 1014.0 |
| 20260507021042 | 58 | 13 | 1.7 | 3.5 | 0.00 | 0.00 | 0.00 | 78 | 1014.0 |
| 20260507020543 | 58 | 8 | 1.7 | 1.7 | 0.00 | 0.00 | 0.00 | 77 | 1014.0 |
| 20260507020043 | 58 | 336 | 1.7 | 2.6 | 0.00 | 0.00 | 0.00 | 77 | 1014.0 |
| 20260507015543 | 58 | 1 | 0.9 | 2.6 | 0.00 | 0.00 | 0.00 | 77 | 1014.0 |
| 20260507015043 | 58 | 356 | 1.7 | 3.5 | 0.00 | 0.00 | 0.00 | 77 | 1014.0 |
| 20260507014544 | 58 | 317 | 2.6 | 3.5 | 0.00 | 0.00 | 0.00 | 77 | 1014.0 |
| 20260507014042 | 58 | 339 | 0.9 | 2.6 | 0.00 | 0.00 | 0.00 | 76 | 1014.0 |
| 20260507013542 | 58 | 339 | 2.6 | 4.3 | 0.00 | 0.00 | 0.00 | 76 | 1014.0 |
| 20260507013043 | 58 | 347 | 1.7 | 3.5 | 0.00 | 0.00 | 0.00 | 76 | 1014.0 |
| 20260507012543 | 58 | 337 | 3.5 | 3.5 | 0.00 | 0.00 | 0.00 | 76 | 1014.0 |
| 20260507012042 | 58 | 352 | 3.5 | 3.5 | 0.00 | 0.00 | 0.00 | 76 | 1014.0 |
| 20260507011542 | 58 | 344 | 1.7 | 3.5 | 0.00 | 0.00 | 0.00 | 76 | 1014.0 |
| 20260507011042 | 59 | 327 | 5.2 | 5.2 | 0.00 | 0.00 | 0.00 | 76 | 1014.0 |
| 20260507010542 | 59 | 313 | 2.6 | 4.3 | 0.00 | 0.00 | 0.00 | 76 | 1014.0 |
| 20260507010045 | 59 | 288 | 2.6 | 3.5 | 0.00 | 0.00 | 0.00 | 76 | 1014.0 |
| 20260507005543 | 59 | 324 | 3.5 | 4.3 | 0.00 | 0.00 | 0.00 | 76 | 1014.0 |
| 20260507005042 | 59 | 335 | 2.6 | 4.3 | 0.00 | 0.00 | 0.00 | 76 | 1014.0 |
| 20260507004542 | 59 | 310 | 3.5 | 4.3 | 0.00 | 0.00 | 0.00 | 76 | 1014.0 |
| 20260507004042 | 59 | 322 | 2.6 | 4.3 | 0.00 | 0.00 | 0.00 | 75 | 1014.0 |
| 20260507003542 | 59 | 303 | 2.6 | 5.2 | 0.00 | 0.00 | 0.00 | 75 | 1014.0 |
| 20260507003043 | 59 | 340 | 2.6 | 6.1 | 0.00 | 0.00 | 0.00 | 75 | 1014.0 |
| 20260507002544 | 59 | 314 | 2.6 | 4.3 | 0.00 | 0.00 | 0.00 | 75 | 1015.0 |
| 20260507002043 | 59 | 348 | 4.3 | 4.3 | 0.00 | 0.00 | 0.00 | 75 | 1015.0 |
| 20260507001543 | 59 | 333 | 2.6 | 4.3 | 0.00 | 0.00 | 0.00 | 75 | 1015.0 |
| 20260507001043 | 59 | 337 | 2.6 | 3.5 | 0.00 | 0.00 | 0.00 | 75 | 1015.0 |
| 20260507000543 | 59 | 316 | 2.6 | 3.5 | 0.00 | 0.00 | 0.00 | 75 | 1015.0 |
| 20260507000043 | 59 | 319 | 1.7 | 3.5 | 0.00 | 0.00 | 0.00 | 75 | 1015.0 |
| 20260506235543 | 59 | 353 | 2.6 | 3.5 | 0.00 | 0.00 | 0.00 | 75 | 1015.0 |
| 20260506235043 | 59 | 328 | 2.6 | 4.3 | 0.00 | 0.00 | 0.00 | 75 | 1015.0 |
| 20260506234543 | 59 | 332 | 3.5 | 4.3 | 0.00 | 0.00 | 0.00 | 74 | 1015.0 |
| 20260506234042 | 59 | 343 | 2.6 | 4.3 | 0.00 | 0.00 | 0.00 | 74 | 1015.0 |
| 20260506233543 | 59 | 347 | 2.6 | 5.2 | 0.00 | 0.00 | 0.00 | 74 | 1015.0 |
| 20260506233043 | 59 | 331 | 3.5 | 4.3 | 0.00 | 0.00 | 0.00 | 74 | 1015.0 |
| 20260506232543 | 60 | 338 | 3.5 | 4.3 | 0.00 | 0.00 | 0.00 | 73 | 1015.0 |
| 20260506232042 | 60 | 310 | 3.5 | 5.2 | 0.00 | 0.00 | 0.00 | 73 | 1015.0 |
| 20260506231543 | 60 | 313 | 2.6 | 4.3 | 0.00 | 0.00 | 0.00 | 73 | 1015.0 |
| 20260506231043 | 60 | 340 | 3.5 | 4.3 | 0.00 | 0.00 | 0.00 | 73 | 1015.0 |
| 20260506230543 | 60 | 341 | 0.9 | 3.5 | 0.00 | 0.00 | 0.00 | 73 | 1015.0 |
| 20260506230044 | 60 | 353 | 2.6 | 3.5 | 0.00 | 0.00 | 0.00 | 73 | 1015.0 |
| 20260506225542 | 60 | 312 | 1.7 | 3.5 | 0.00 | 0.00 | 0.00 | 73 | 1014.0 |
| 20260506225043 | 60 | 306 | 2.6 | 4.3 | 0.00 | 0.00 | 0.00 | 72 | 1015.0 |
| 20260506224543 | 60 | 312 | 3.5 | 4.3 | 0.00 | 0.00 | 0.00 | 72 | 1015.0 |
| 20260506224042 | 60 | 334 | 4.3 | 4.3 | 0.00 | 0.00 | 0.00 | 72 | 1014.0 |
| 20260506223542 | 60 | 308 | 2.6 | 3.5 | 0.00 | 0.00 | 0.00 | 72 | 1015.0 |
| 20260506223043 | 60 | 335 | 4.3 | 5.2 | 0.00 | 0.00 | 0.00 | 72 | 1014.0 |
| 20260506222542 | 60 | 338 | 4.3 | 4.3 | 0.00 | 0.00 | 0.00 | 72 | 1014.0 |
| 20260506222042 | 60 | 337 | 3.5 | 3.5 | 0.00 | 0.00 | 0.00 | 72 | 1014.0 |
| 20260506221543 | 60 | 329 | 0.9 | 3.5 | 0.00 | 0.00 | 0.00 | 72 | 1014.0 |
| 20260506221042 | 60 | 305 | 0.9 | 5.2 | 0.00 | 0.00 | 0.00 | 72 | 1014.0 |
| 20260506220542 | 60 | 349 | 3.5 | 4.3 | 0.00 | 0.00 | 0.00 | 72 | 1014.0 |
| 20260506220044 | 60 | 326 | 1.7 | 3.5 | 0.00 | 0.00 | 0.00 | 72 | 1014.0 |
| 20260506215546 | 60 | 21 | 1.7 | 4.3 | 0.00 | 0.00 | 0.00 | 72 | 1015.0 |
| 20260506215042 | 60 | 22 | 2.6 | 4.3 | 0.00 | 0.00 | 0.00 | 72 | 1014.0 |
| 20260506214542 | 61 | 1 | 2.6 | 3.5 | 0.00 | 0.00 | 0.00 | 71 | 1014.0 |
| 20260506214042 | 61 | 292 | 3.5 | 3.5 | 0.00 | 0.00 | 0.00 | 71 | 1015.0 |
| 20260506213543 | 61 | 333 | 3.5 | 4.3 | 0.00 | 0.00 | 0.00 | 71 | 1014.0 |
| 20260506213042 | 61 | 37 | 4.3 | 4.3 | 0.00 | 0.00 | 0.00 | 72 | 1014.0 |
| 20260506212542 | 61 | 9 | 2.6 | 5.2 | 0.00 | 0.00 | 0.00 | 72 | 1014.0 |
| 20260506212042 | 61 | 330 | 0.9 | 4.3 | 0.00 | 0.00 | 0.00 | 72 | 1014.0 |
| 20260506211542 | 61 | 347 | 1.7 | 3.5 | 0.00 | 0.00 | 0.00 | 72 | 1014.0 |
| 20260506211042 | 61 | 301 | 3.5 | 4.3 | 0.00 | 0.00 | 0.00 | 72 | 1014.0 |
| 20260506210542 | 61 | 358 | 2.6 | 4.3 | 0.00 | 0.00 | 0.00 | 72 | 1014.0 |
| 20260506210042 | 61 | 36 | 0.0 | 2.6 | 0.00 | 0.00 | 0.00 | 72 | 1014.0 |
| 20260506205542 | 61 | 358 | 4.3 | 5.2 | 0.00 | 0.00 | 0.00 | 72 | 1014.0 |
| 20260506205043 | 61 | 320 | 1.7 | 3.5 | 0.00 | 0.00 | 0.00 | 72 | 1014.0 |
| 20260506204543 | 61 | 355 | 6.1 | 6.1 | 0.00 | 0.00 | 0.00 | 72 | 1014.0 |
| 20260506204043 | 61 | 303 | 2.6 | 6.1 | 0.00 | 0.00 | 0.00 | 72 | 1014.0 |
| 20260506203543 | 61 | 356 | 2.6 | 5.2 | 0.00 | 0.00 | 0.00 | 72 | 1014.0 |
| 20260506203043 | 61 | 349 | 2.6 | 4.3 | 0.00 | 0.00 | 0.00 | 71 | 1014.0 |
| 20260506202542 | 61 | 352 | 3.5 | 6.1 | 0.00 | 0.00 | 0.00 | 71 | 1014.0 |
| 20260506202042 | 61 | 358 | 2.6 | 3.5 | 0.00 | 0.00 | 0.00 | 71 | 1014.0 |
| 20260506201543 | 61 | 34 | 0.0 | 2.6 | 0.00 | 0.00 | 0.00 | 71 | 1014.0 |
| 20260506201043 | 62 | 338 | 2.6 | 2.6 | 0.00 | 0.00 | 0.00 | 71 | 1014.0 |
| 20260506200542 | 62 | 346 | 2.6 | 4.3 | 0.00 | 0.00 | 0.00 | 72 | 1014.0 |
| 20260506200042 | 62 | 65 | 2.6 | 4.3 | 0.00 | 0.00 | 0.00 | 72 | 1014.0 |
| 20260506195542 | 62 | 310 | 1.7 | 3.5 | 0.00 | 0.00 | 0.00 | 71 | 1013.0 |
| 20260506195042 | 62 | 69 | 1.7 | 3.5 | 0.00 | 0.00 | 0.00 | 71 | 1013.0 |
| 20260506194543 | 62 | 61 | 2.6 | 3.5 | 0.00 | 0.00 | 0.00 | 71 | 1013.0 |
| 20260506194043 | 62 | 68 | 5.2 | 6.1 | 0.00 | 0.00 | 0.00 | 71 | 1013.0 |
| 20260506193542 | 62 | 56 | 3.5 | 5.2 | 0.00 | 0.00 | 0.00 | 71 | 1013.0 |
| 20260506193042 | 62 | 42 | 3.5 | 4.3 | 0.00 | 0.00 | 0.00 | 71 | 1013.0 |
| 20260506192542 | 62 | 60 | 2.6 | 4.3 | 0.00 | 0.00 | 0.00 | 71 | 1013.0 |
| 20260506192043 | 62 | 60 | 5.2 | 7.8 | 0.00 | 0.00 | 0.00 | 71 | 1013.0 |
| 20260506191544 | 62 | 52 | 2.6 | 7.0 | 0.00 | 0.00 | 0.00 | 71 | 1013.0 |
| 20260506191042 | 62 | 95 | 5.2 | 7.0 | 0.00 | 0.00 | 0.00 | 70 | 1013.0 |
| 20260506190545 | 62 | 98 | 4.3 | 5.2 | 0.00 | 0.00 | 0.00 | 70 | 1013.0 |
| 20260506190042 | 62 | 114 | 4.3 | 4.3 | 0.00 | 0.00 | 0.00 | 70 | 1013.0 |
| 20260506185542 | 62 | 104 | 4.3 | 5.2 | 0.00 | 0.00 | 0.00 | 69 | 1013.0 |
| 20260506185043 | 63 | 96 | 5.2 | 7.8 | 0.00 | 0.00 | 0.00 | 69 | 1013.0 |
| 20260506184542 | 63 | 123 | 2.6 | 3.5 | 0.00 | 0.00 | 0.00 | 68 | 1013.0 |
| 20260506184042 | 64 | 65 | 3.5 | 4.3 | 0.00 | 0.00 | 0.00 | 67 | 1013.0 |
| 20260506183543 | 64 | 70 | 2.6 | 6.1 | 0.00 | 0.00 | 0.00 | 67 | 1013.0 |
| 20260506183043 | 64 | 64 | 4.3 | 8.7 | 0.00 | 0.00 | 0.00 | 67 | 1013.0 |
| 20260506182542 | 64 | 139 | 1.7 | 7.8 | 0.00 | 0.00 | 0.00 | 67 | 1012.0 |
| 20260506182042 | 64 | 80 | 4.3 | 8.7 | 0.00 | 0.00 | 0.00 | 66 | 1012.0 |
| 20260506181543 | 65 | 49 | 6.1 | 7.8 | 0.00 | 0.00 | 0.00 | 64 | 1012.0 |
| 20260506181043 | 65 | 40 | 7.8 | 8.7 | 0.00 | 0.00 | 0.00 | 63 | 1012.0 |
| 20260506180544 | 66 | 17 | 0.9 | 7.8 | 0.00 | 0.00 | 0.00 | 63 | 1012.0 |
| 20260506180042 | 66 | 92 | 3.5 | 6.1 | 0.00 | 0.00 | 0.00 | 62 | 1012.0 |
| 20260506175542 | 66 | 54 | 3.5 | 7.0 | 0.00 | 0.00 | 0.00 | 61 | 1012.0 |
| 20260506175044 | 65 | 34 | 1.7 | 5.2 | 0.00 | 0.00 | 0.00 | 60 | 1012.0 |
| 20260506174543 | 65 | 74 | 7.0 | 11.3 | 0.00 | 0.00 | 0.00 | 59 | 1012.0 |
| 20260506174042 | 65 | 90 | 4.3 | 11.3 | 0.00 | 0.00 | 0.00 | 59 | 1012.0 |
| 20260506173543 | 65 | 102 | 5.2 | 11.3 | 0.00 | 0.00 | 0.00 | 62 | 1012.0 |
| 20260506173043 | 66 | 81 | 3.5 | 8.7 | 0.00 | 0.00 | 0.00 | 62 | 1012.0 |
| 20260506172544 | 65 | 115 | 7.0 | 11.3 | 0.00 | 0.00 | 0.00 | 64 | 1012.0 |
| 20260506172043 | 66 | 87 | 11.3 | 13.0 | 0.00 | 0.00 | 0.00 | 62 | 1012.0 |
| 20260506171542 | 67 | 70 | 8.7 | 12.2 | 0.00 | 0.00 | 0.00 | 60 | 1012.0 |
| 20260506171043 | 67 | 106 | 5.2 | 9.6 | 0.00 | 0.00 | 0.00 | 55 | 1012.0 |
| 20260506170543 | 67 | 78 | 7.8 | 11.3 | 0.00 | 0.00 | 0.00 | 56 | 1012.0 |
| 20260506170043 | 67 | 73 | 8.7 | 13.0 | 0.00 | 0.00 | 0.00 | 58 | 1011.0 |
| 20260506165542 | 68 | 110 | 7.0 | 8.7 | 0.00 | 0.00 | 0.00 | 58 | 1012.0 |
| 20260506165042 | 67 | 108 | 9.6 | 12.2 | 0.00 | 0.00 | 0.00 | 59 | 1012.0 |
| 20260506164543 | 67 | 101 | 9.6 | 13.0 | 0.00 | 0.00 | 0.00 | 56 | 1012.0 |
| 20260506164043 | 69 | 107 | 7.8 | 13.9 | 0.00 | 0.00 | 0.00 | 50 | 1012.0 |
| 20260506163542 | 68 | 97 | 7.8 | 9.6 | 0.00 | 0.00 | 0.00 | 54 | 1012.0 |
| 20260506163043 | 68 | 55 | 7.0 | 14.8 | 0.00 | 0.00 | 0.00 | 54 | 1012.0 |
| 20260506162545 | 69 | 110 | 9.6 | 9.6 | 0.00 | 0.00 | 0.00 | 46 | 1012.0 |
| 20260506162042 | 69 | 105 | 3.5 | 8.7 | 0.00 | 0.00 | 0.00 | 45 | 1012.0 |
| 20260506161543 | 70 | 51 | 5.2 | 9.6 | 0.00 | 0.00 | 0.00 | 44 | 1012.0 |
| 20260506161043 | 69 | 26 | 4.3 | 9.6 | 0.00 | 0.00 | 0.00 | 46 | 1012.0 |
| 20260506160545 | 69 | 103 | 7.0 | 9.6 | 0.00 | 0.00 | 0.00 | 44 | 1012.0 |
| 20260506160043 | 69 | 49 | 7.8 | 9.6 | 0.00 | 0.00 | 0.00 | 46 | 1011.0 |
| 20260506155542 | 69 | 64 | 4.3 | 7.8 | 0.00 | 0.00 | 0.00 | 43 | 1012.0 |
| 20260506155043 | 69 | 110 | 6.1 | 7.8 | 0.00 | 0.00 | 0.00 | 43 | 1012.0 |
| 20260506154542 | 69 | 67 | 2.6 | 8.7 | 0.00 | 0.00 | 0.00 | 46 | 1011.0 |
| 20260506154043 | 69 | 77 | 4.3 | 12.2 | 0.00 | 0.00 | 0.00 | 48 | 1011.0 |
| 20260506153542 | 70 | 62 | 6.1 | 7.8 | 0.00 | 0.00 | 0.00 | 42 | 1012.0 |
| 20260506153043 | 71 | 18 | 2.6 | 5.2 | 0.00 | 0.00 | 0.00 | 42 | 1011.0 |
| 20260506152543 | 69 | 66 | 5.2 | 10.4 | 0.00 | 0.00 | 0.00 | 44 | 1012.0 |
| 20260506152043 | 69 | 55 | 6.1 | 9.6 | 0.00 | 0.00 | 0.00 | 46 | 1012.0 |
| 20260506151542 | 68 | 77 | 2.6 | 9.6 | 0.00 | 0.00 | 0.00 | 48 | 1012.0 |
| 20260506151043 | 68 | 98 | 2.6 | 7.8 | 0.00 | 0.00 | 0.00 | 46 | 1012.0 |
| 20260506150545 | 68 | 119 | 7.8 | 11.3 | 0.00 | 0.00 | 0.00 | 45 | 1012.0 |
| 20260506150045 | 69 | 111 | 5.2 | 6.1 | 0.00 | 0.00 | 0.00 | 44 | 1012.0 |
| 20260506145542 | 68 | 70 | 6.1 | 12.2 | 0.00 | 0.00 | 0.00 | 45 | 1012.0 |
| 20260506145043 | 69 | 106 | 12.2 | 12.2 | 0.00 | 0.00 | 0.00 | 45 | 1012.0 |
| 20260506144542 | 69 | 111 | 7.8 | 12.2 | 0.00 | 0.00 | 0.00 | 45 | 1012.0 |
| 20260506144042 | 68 | 63 | 5.2 | 13.9 | 0.00 | 0.00 | 0.00 | 46 | 1012.0 |
| 20260506143543 | 68 | 7 | 1.7 | 7.8 | 0.00 | 0.00 | 0.00 | 45 | 1012.0 |
| 20260506143044 | 67 | 99 | 6.1 | 10.4 | 0.00 | 0.00 | 0.00 | 46 | 1012.0 |
| 20260506142542 | 67 | 112 | 8.7 | 10.4 | 0.00 | 0.00 | 0.00 | 47 | 1012.0 |
| 20260506142043 | 67 | 115 | 5.2 | 6.1 | 0.00 | 0.00 | 0.00 | 48 | 1012.0 |
| 20260506141543 | 68 | 60 | 7.0 | 8.7 | 0.00 | 0.00 | 0.00 | 49 | 1012.0 |
| 20260506141043 | 67 | 91 | 3.5 | 12.2 | 0.00 | 0.00 | 0.00 | 51 | 1012.0 |
| 20260506140542 | 68 | 54 | 12.2 | 13.9 | 0.00 | 0.00 | 0.00 | 49 | 1013.0 |
| 20260506140044 | 68 | 8 | 4.3 | 9.6 | 0.00 | 0.00 | 0.00 | 47 | 1012.0 |
| 20260506135543 | 68 | 33 | 9.6 | 16.5 | 0.00 | 0.00 | 0.00 | 49 | 1012.0 |
| 20260506135043 | 69 | 66 | 12.2 | 16.5 | 0.00 | 0.00 | 0.00 | 48 | 1012.0 |
| 20260506134542 | 71 | 105 | 2.6 | 4.3 | 0.00 | 0.00 | 0.00 | 46 | 1012.0 |
| 20260506134042 | 72 | 260 | 1.7 | 6.1 | 0.00 | 0.00 | 0.00 | 40 | 1012.0 |
| 20260506133544 | 72 | 182 | 3.5 | 4.3 | 0.00 | 0.00 | 0.00 | 35 | 1012.0 |